Location: Cortada de Papelón
(10.0378°N, 66.9528°W)
Time: 10:52:04
(UTC+00:00)

Cosmos 1302 Rocket - Pass Details

Date: 13 June 2024
Orbit: 754 x 774 km, 74.0° (Epoch: 19 July)

Event Time Altitude Azimuth Distance (km) Brightness Sun altitude
Rises 23:16:22 0° 352° (N) 3,223 7.7 -6.9°
Reaches altitude 10° 23:18:45 10° 355° (N) 2,300 6.9 -7.4°
Maximum altitude 23:23:56 66° 77° (ENE) 840 4.0 -8.6°
Drops below altitude 10° 23:29:09 10° 159° (SSE) 2,312 6.1 -9.7°
Enters shadow 23:30:59 - 161° (SSE) 3,026 6.7 -10.1°
